Location: Malvern Link
(52.1333°N, 2.3000°W)
Time: 16:20:05
(UTC+00:00)

SPROUT - Pass Details

Date: 09 July 2022
Orbit: 588 x 598 km, 97.9° (Epoch: 09 August)

Event Time Altitude Azimuth Distance (km) Brightness Sun altitude
Exits shadow 01:37:05 20° 219° (SW) 1,390 ? -13.3°
Maximum altitude 01:39:07 30° 265° (W) 1,075 ? -13.2°
Drops below altitude 10° 01:42:50 10° 327° (NNW) 1,933 ? -13.0°
Sets 01:45:14 0° 338° (NNW) 2,841 ? -12.9°
